Route Details

Aircraft Information
Group: North America Fleet
Types: B738, B752, B762, B763
Route Data
Distance: 502nm
Duration: 1h 55m
Origin METAR: KRDU 010451Z 35004KT 1/4SM -DZ FG OVC001 13/13 A3009 RMK AO2 TWR VIS 1/2 DZE39B50RAB39E50 SLP188 P0000 T01330128 401500100
Dest. METAR: KLAL 010435Z AUTO 00000KT 10SM CLR 18/16 A3020 RMK AO2 T01780158
Freight Data
(for Feb 1, 2023)
Load Factor:
47%
Manifested Cargo: 36,037lbs
Financial History
Total Freight: 81,228lbs
Average Load: 0lbs/flt
Fuel Used: 11,386lbs
Avg. Fuel Used: 0lbs/flt
Fuel Expense: $9,200
Avg. Fuel Expense: $0
Avg. Fuel Cost: $0/lbs
Total Gross Income: $199,821
Pilot Pay: $119
Total Expenses: $38,673
Total Revenue: $151,562
Average Revenue: $0

Capitol Logistics 329




KRDU
Raleigh Durham International Airport
Raleigh-durham, North Carolina
KLAL
Lakeland Linder Regional Airport
Lakeland, Florida

Activity Log

Date Flight Route Aircraft Duration
07/11/2022 CPX329 HOOKZ4 DAWTS CAE FISHO Q75 ENEME TAY/N0465F330 GNV LAL B763 1h 34m